This is the latest recevied weather packets stored in our database for station/object KD8NVS-13. If no packets are shown the sender has not sent any weather packets the latest 1 day(s).
| Time | Temp. | Humidity | Pressure | Rain* | Wind** | Luminosity | Snow |
|---|---|---|---|---|---|---|---|
| 1778057193 | 9.44° C | 97% | 997.3 hPa | 1.78 mm | 2.24 m/s, 264° | 0 W/m² | - |
| 1778056890 | 9.44° C | 97% | 997.3 hPa | 1.52 mm | 0.89 m/s, 258° | 0 W/m² | - |
| 1778056587 | 9.44° C | 96% | 997.6 hPa | 1.52 mm | 2.24 m/s, 264° | 0 W/m² | - |
| 1778056285 | 9.44° C | 96% | 997.3 hPa | 1.52 mm | 0.89 m/s, 254° | 0 W/m² | - |
| 1778055981 | 9.44° C | 96% | 997 hPa | 1.02 mm | 1.79 m/s, 264° | 0 W/m² | - |
| 1778055677 | 9.44° C | 97% | 997 hPa | 0.76 mm | 0.89 m/s, 264° | 0 W/m² | - |
| 1778055375 | 9.44° C | 97% | 997.3 hPa | 0.25 mm | 0.89 m/s, 271° | 0 W/m² | - |
| 1778055073 | 9.44° C | 97% | 997.3 hPa | 0.25 mm | 2.24 m/s, 240° | 0 W/m² | - |
| 1778054770 | 9.44° C | 97% | 997 hPa | 0 mm | 2.24 m/s, 270° | 0 W/m² | - |
| 1778054467 | 9.44° C | 97% | 997 hPa | 1.52 mm | 1.34 m/s, 252° | 0 W/m² | - |
| 1778054164 | 9.44° C | 97% | 997 hPa | 1.52 mm | 1.34 m/s, 252° | 0 W/m² | - |
| 1778053861 | 10° C | 97% | 996.6 hPa | 1.52 mm | 1.34 m/s, 264° | 0 W/m² | - |
| 1778053559 | 10° C | 97% | 996.6 hPa | 1.52 mm | 0.89 m/s, 258° | 0 W/m² | - |
| 1778053255 | 10° C | 97% | 996.6 hPa | 1.52 mm | 1.79 m/s, 264° | 0 W/m² | - |
| 1778052953 | 10° C | 97% | 996.3 hPa | 1.52 mm | 2.24 m/s, 254° | 0 W/m² | - |
| 1778052650 | 10° C | 97% | 996.3 hPa | 1.02 mm | 1.34 m/s, 252° | 0 W/m² | - |
| 1778052347 | 10° C | 97% | 996.3 hPa | 1.02 mm | 0 m/s | 0 W/m² | - |
| 1778052045 | 10.56° C | 97% | 996.6 hPa | 0.76 mm | 1.79 m/s, 264° | 0 W/m² | - |
| 1778051743 | 10.56° C | 97% | 996.3 hPa | 0.76 mm | 1.34 m/s, 258° | 0 W/m² | - |
| 1778051440 | 10.56° C | 98% | 996.3 hPa | 0.25 mm | 0 m/s | 0 W/m² | - |
| 1778051137 | 10.56° C | 98% | 996.3 hPa | 0 mm | 2.68 m/s, 258° | 0 W/m² | - |
| 1778050834 | 10.56° C | 98% | 996.6 hPa | 0 mm | 2.24 m/s, 246° | 0 W/m² | - |
| 1778050532 | 10.56° C | 98% | 996.3 hPa | 3.81 mm | 1.34 m/s, 270° | 0 W/m² | - |
| 1778050228 | 10.56° C | 98% | 996.6 hPa | 3.56 mm | 2.68 m/s, 252° | 0 W/m² | - |
| 1778049925 | 10.56° C | 98% | 996.3 hPa | 3.05 mm | 3.13 m/s, 252° | 0 W/m² | - |
* Rain latest hour (hover to see other rain measurements)
** Current wind speed in m/s (hover to see current wind gust speed)